Voltar ao catálogo

BEIDOU 3M12

AtivoNavegaçãoMEO
NORAD 43603·PAYLOAD·🇨🇳 China

Lançado Aug 24, 2018 de Xichang Satellite Launch Center

Loading…

Próximas Passagens (próximas 24 horas)

TLE

AtualizadoSource: CelesTrak SupGP

Época: Sep 12, 2026, 00:00 UTC

1 43603C 18067B   26255.00000000  .00000000  00000+0  00000+0 0  2551
2 43603  54.1753 178.0620 0005433  27.1662 311.6624  1.86227223    13

Acompanhe BEIDOU 3M12 em tempo real com AllMySat

Download on the App Store